Vorticity
10 9 9 9 9 9 10 10 10 9 8 8 8 8 8 7 7 7 6 5 5 5 4 4 4 4 4 4 4 4 4 4 5 5 5 5 5 5 5 6 7 7 8 9 9 8 8 7 6 6 5 5 4 3 4 4 4 4 5 6 6 6 6 7 7 7 7 7 8
10 9 9 9 9 10 10 11 10 10 9 9 8 8 7 7 7 6 6 5 4 4 4 4 4 4 4 4 4 4 5 5 5 5 5 5 5 5 5 6 6 7 7 8 8 8 8 7 6 6 6 5 4 3 4 4 4 4 4 6 6 6 6 7 7 7 7 7 7
10 10 9 9 9 10 11 12 11 10 10 9 8 8 7 7 6 6 6 5 4 4 3 3 3 3 4 4 4 5 5 5 5 5 5 5 5 5 5 5 5 6 6 7 7 7 7 7 6 6 6 5 4 4 3 4 4 4 4 5 5 5 6 7 7 7 7 7 7
11 10 9 9 9 10 12 13 13 12 11 10 9 8 7 7 6 6 5 5 4 3 3 3 3 3 3 4 5 5 5 6 6 6 6 5 5 5 5 5 5 5 6 6 7 7 7 7 7 6 6 5 4 4 4 3 3 4 4 4 4 5 6 7 7 7 7 7 7
11 11 10 10 10 11 12 14 14 13 12 10 9 8 7 7 6 5 5 4 4 3 3 3 3 3 4 4 5 5 5 6 6 6 6 6 5 5 5 5 5 6 6 7 7 7 7 7 7 7 7 6 5 4 4 2 3 3 4 3 4 5 5 6 6 6 6 7 7
11 11 11 11 11 12 13 14 15 14 13 11 10 8 8 7 6 5 5 4 4 4 3 3 3 3 4 4 5 5 6 6 6 6 6 6 5 5 5 5 6 6 7 7 7 7 7 7 7 7 7 7 6 5 4 3 3 3 3 4 4 5 5 6 6 6 6 6 7
12 12 12 12 12 12 13 15 15 15 13 12 10 9 8 7 6 5 5 4 4 4 3 3 3 4 4 4 5 5 6 6 6 6 6 6 6 5 5 6 6 7 7 8 7 7 7 7 7 7 8 7 7 6 5 4 4 3 3 4 4 4 5 5 5 5 6 6 7
12 12 12 12 12 13 14 15 16 15 14 12 10 9 7 7 6 5 4 4 4 3 3 3 4 4 4 5 5 6 6 6 6 6 6 6 6 5 5 6 7 7 8 8 7 7 7 7 7 8 8 8 7 6 5 5 4 4 4 4 3 4 5 5 5 5 6 6 6
12 13 13 13 13 13 14 15 16 15 14 13 11 9 7 6 6 5 4 4 3 3 3 3 4 4 5 5 6 6 7 7 7 7 6 6 6 6 6 6 6 7 7 8 7 7 7 7 8 8 9 8 8 7 6 5 4 4 4 4 3 3 4 5 5 6 6 6 6
13 13 13 14 14 14 15 16 16 15 14 13 10 9 7 6 6 5 4 4 3 3 3 3 4 4 5 6 7 7 8 8 7 7 7 6 6 6 6 6 6 7 7 8 8 7 7 7 8 9 9 9 8 7 6 5 5 5 4 4 3 3 4 5 5 6 6 7 7
13 14 14 14 15 15 15 16 16 15 14 12 10 9 7 6 5 5 4 3 3 3 3 3 4 5 6 6 7 8 8 8 8 7 7 6 6 5 5 5 6 7 7 7 7 7 7 7 8 9 9 10 9 8 6 6 6 5 5 4 4 3 3 4 5 6 6 7 7
14 15 15 15 15 16 16 16 16 15 13 12 10 8 7 6 5 4 4 3 3 3 3 3 4 5 6 7 7 8 8 8 7 7 7 6 6 5 5 5 6 6 7 7 7 7 7 8 8 9 10 10 9 9 7 6 6 6 5 4 4 4 4 4 5 6 6 6 6
15 16 16 16 16 16 16 16 15 15 13 12 10 8 7 6 5 4 3 3 3 3 3 4 4 5 6 7 8 8 8 7 7 7 6 6 6 5 5 5 6 6 6 7 7 7 8 8 9 10 10 10 10 9 8 7 7 6 6 5 4 4 4 4 5 5 5 5 6
15 16 16 17 16 16 16 16 15 14 13 11 10 8 7 6 5 4 3 3 3 3 3 4 4 5 6 7 8 8 8 7 7 7 6 6 6 5 5 6 6 6 6 6 6 7 8 9 9 10 10 10 10 9 9 8 7 7 6 5 5 4 4 4 4 4 4 5 6
15 16 16 16 16 16 16 16 15 14 12 11 9 8 7 5 4 4 3 3 3 3 3 4 4 6 7 8 8 8 8 7 7 6 6 5 5 5 6 6 6 6 6 5 6 7 8 9 9 10 10 10 10 9 9 8 8 7 7 6 5 4 4 4 3 4 4 5 5
14 15 15 15 16 16 15 15 14 13 12 11 9 8 6 5 4 3 3 3 3 3 4 4 5 6 7 8 9 8 8 7 6 6 5 5 5 5 6 6 6 6 5 5 6 6 7 8 9 9 9 10 10 9 9 8 8 7 7 7 6 5 4 3 3 4 4 4 4
13 14 14 14 15 15 15 14 14 13 12 11 9 8 6 5 4 3 3 3 3 3 4 5 5 6 7 9 9 9 8 6 6 5 5 5 5 6 6 6 6 5 5 5 5 6 7 8 8 9 9 9 9 9 8 8 8 7 7 6 6 5 4 3 3 4 4 4 5
13 13 13 13 14 14 14 14 13 13 12 10 9 8 6 5 4 3 3 3 4 4 4 5 6 7 8 9 10 9 8 6 6 6 6 6 6 6 6 5 5 5 4 5 5 6 6 7 7 8 9 9 9 9 8 8 8 7 7 6 6 5 4 3 3 4 4 4 4
12 12 13 13 13 13 13 13 13 12 11 10 9 8 6 5 4 4 4 4 4 5 5 6 7 8 9 10 10 9 8 7 6 6 6 6 6 5 5 4 4 4 4 5 5 6 6 7 7 8 8 9 9 9 9 8 8 7 7 6 5 5 4 3 3 4 4 4 4
11 11 12 12 12 12 12 12 12 12 11 10 9 8 7 5 5 4 4 4 5 6 6 7 7 8 9 10 10 9 8 7 6 6 6 5 5 5 4 4 4 4 4 5 6 6 7 7 7 7 8 8 9 9 9 8 8 7 7 6 6 5 4 3 3 3 4 4 4
11 11 11 11 11 11 11 11 11 11 11 10 9 8 7 6 5 5 5 5 6 7 7 7 7 8 9 10 10 9 8 7 7 6 5 5 5 5 4 4 4 4 4 5 6 7 7 7 7 7 8 8 9 9 9 9 8 7 7 6 6 5 4 4 3 3 3 3 3
11 11 11 11 11 11 11 11 11 11 10 10 9 8 7 6 6 6 6 6 7 7 7 7 8 9 9 10 9 8 7 6 6 5 5 4 4 4 4 4 4 4 4 6 6 7 7 7 7 7 7 8 8 9 10 10 9 8 7 6 5 5 4 4 3 3 3 3 3
11 11 11 11 11 11 10 10 10 10 10 9 9 8 7 7 7 7 7 7 7 7 7 8 8 9 9 9 8 7 5 5 5 5 4 4 4 4 4 4 4 4 5 6 6 7 7 7 7 7 7 7 8 8 9 10 10 9 8 6 6 5 4 4 3 3 3 3 3
11 11 11 11 11 10 10 10 10 10 9 9 9 9 8 8 8 8 8 8 8 8 8 8 8 9 8 8 7 5 4 3 3 3 4 4 4 4 4 4 5 5 6 6 6 7 7 7 6 6 6 6 7 7 8 10 10 10 9 8 6 5 4 4 4 4 3 4 4
10 10 10 10 10 10 10 10 9 9 9 9 9 9 9 9 9 9 9 9 9 9 9 8 8 8 7 7 5 4 3 3 2 2 3 4 4 4 5 5 6 6 6 6 6 7 7 8 7 6 6 5 6 6 7 8 9 10 10 10 8 6 5 4 4 4 4 4 4
9 9 10 10 10 10 10 9 9 9 10 10 10 10 11 11 11 11 10 10 10 10 9 8 8 7 7 6 4 4 4 4 3 3 3 4 4 5 5 6 6 6 6 6 6 7 7 7 8 7 6 6 5 5 6 7 8 9 10 11 10 8 6 5 4 4 4 4 4
7 8 9 10 10 10 10 9 9 10 10 10 11 11 11 12 12 12 12 11 10 10 9 8 7 6 5 5 4 4 4 4 4 5 5 5 5 5 5 5 5 5 5 5 5 6 7 7 8 8 8 7 6 6 5 6 7 8 10 11 11 10 9 7 5 4 3 3 3
7 7 8 9 10 10 10 10 10 10 10 10 11 12 12 13 13 12 12 11 10 9 8 7 6 5 5 4 4 4 4 4 4 5 5 5 5 5 5 5 5 4 4 4 4 5 6 7 8 9 10 10 8 7 6 5 6 7 8 10 11 11 11 9 7 5 3 2 2
11 8 7 8 9 10 10 11 11 11 11 12 12 12 13 13 13 12 11 10 9 8 7 6 5 5 5 4 4 4 4 4 4 4 4 5 5 5 5 4 4 4 3 3 3 3 4 5 7 9 10 11 10 9 7 6 6 7 8 9 11 12 12 11 9 7 5 3 2
18 13 10 8 8 9 10 11 12 12 12 12 13 13 13 13 12 12 11 10 8 7 6 5 5 4 4 4 3 4 4 3 3 3 3 3 3 3 3 3 3 3 3 2 2 1 1 2 3 5 7 9 10 9 8 7 6 7 7 9 10 11 12 12 11 9 7 4 2
22 20 16 13 11 10 10 11 12 12 13 13 13 13 13 13 12 11 10 9 7 6 5 5 4 3 3 2 2 2 2 2 2 2 2 2 2 2 2 2 2 2 2 1 0 -0 -1 -1 -0 1 3 5 7 8 8 7 6 7 8 9 10 11 11 11 11 10 9 7 4
20 21 21 19 16 14 13 12 13 13 13 13 13 13 13 12 12 11 10 8 6 5 4 4 3 2 2 2 1 1 0 0 0 0 0 0 0 0 0 1 1 1 1 1 -0 -1 -1 -2 -1 -1 0 2 4 6 7 7 7 8 9 9 10 10 10 11 11 11 10 9 7
15 18 20 21 20 18 16 15 14 14 14 14 13 13 13 12 11 10 9 7 6 4 3 2 2 2 1 1 0 -0 -0 -1 -1 -1 -1 -1 -1 -1 -0 -0 0 0 0 0 0 0 0 0 0 1 1 2 4 6 8 9 10 10 10 10 10 10 10 10 11 11 11 10 8
12 14 16 18 19 20 19 18 16 16 15 15 14 13 13 12 11 10 8 6 5 3 2 1 1 1 1 0 -0 -1 -1 -2 -2 -2 -2 -2 -2 -1 -1 -1 -1 -0 0 1 1 1 2 2 2 2 3 4 6 8 10 12 13 12 11 10 10 10 10 10 11 11 11 11 9
12 13 14 15 17 18 19 19 18 17 16 16 15 14 13 12 11 10 8 6 5 3 2 1 1 0 0 -0 -1 -1 -2 -2 -2 -2 -2 -2 -2 -1 -1 -2 -2 -1 -0 1 1 2 2 2 2 3 3 5 7 10 13 14 14 13 12 11 10 10 10 11 11 11 11 11 10
13 13 13 14 15 16 17 18 18 18 17 17 16 15 14 12 11 9 8 7 5 4 2 1 0 -0 -0 -1 -1 -1 -2 -2 -1 -1 -1 -1 -1 -1 -1 -1 -1 -1 -1 -0 0 1 2 2 3 3 3 4 7 10 13 15 15 14 13 11 10 10 10 11 11 11 11 11 10
15 14 13 13 13 14 15 16 17 17 17 17 16 15 14 13 11 9 8 7 6 5 4 2 1 -0 -1 -2 -2 -2 -2 -2 -2 -1 -1 -0 0 0 0 0 -0 -1 -2 -3 -3 -2 -0 2 4 4 4 4 6 10 13 16 16 14 13 11 10 10 10 11 11 11 11 11 11
17 16 15 14 14 14 14 14 15 16 16 16 16 16 15 13 12 10 9 7 6 5 4 3 2 0 -0 -2 -2 -3 -3 -3 -3 -2 -2 -2 -1 -0 0 0 -0 -1 -3 -6 -7 -6 -3 2 6 7 6 5 7 10 13 16 16 14 12 11 10 10 10 11 11 12 12 12 12
19 19 18 17 16 15 14 14 14 14 14 15 16 16 16 16 14 13 11 9 7 6 5 4 2 2 1 -1 -2 -3 -4 -4 -4 -4 -4 -4 -4 -4 -4 -3 -4 -5 -6 -7 -7 -5 -1 5 8 9 8 7 8 11 14 16 15 14 12 10 10 10 11 11 12 12 12 12 12
21 21 20 20 19 18 17 15 15 14 14 14 15 16 16 17 16 16 15 13 12 10 9 7 6 5 4 3 2 1 0 -1 -2 -2 -3 -4 -5 -6 -6 -6 -6 -6 -6 -4 -2 1 5 10 11 11 10 9 10 13 15 16 15 13 12 10 10 10 11 12 12 12 12 13 14
24 23 22 21 21 21 20 19 18 16 15 15 15 15 15 16 16 16 16 16 16 15 14 14 13 13 12 11 11 10 10 9 8 7 6 4 2 1 -0 -2 -2 -2 0 3 7 11 14 16 14 12 11 10 12 14 15 16 15 13 11 10 10 10 10 11 11 11 12 14 15
Height
3081 3082 3083 3084 3085 3086 3087 3088 3089 3090 3091 3092 3093 3095 3096 3098 3099 3100 3101 3103 3104 3106 3107 3108 3110 3111 3111 3112 3113 3113 3114 3114 3115 3115 3116 3116 3117 3117 3118 3118 3119 3119 3120 3121 3121 3121 3122 3122 3122 3123 3123 3123 3124 3124 3124 3124 3125 3125 3125 3125 3125 3125 3125 3125 3125 3125 3125 3125 3125
3079 3080 3081 3081 3082 3083 3084 3086 3086 3088 3089 3090 3091 3092 3094 3096 3097 3098 3100 3101 3102 3104 3105 3106 3107 3108 3109 3110 3111 3111 3112 3112 3113 3113 3114 3114 3115 3115 3116 3116 3116 3117 3118 3118 3119 3119 3120 3120 3121 3121 3121 3121 3122 3122 3122 3123 3123 3123 3123 3123 3123 3124 3124 3124 3124 3124 3123 3123 3123
3076 3077 3078 3079 3080 3081 3082 3083 3084 3085 3086 3088 3089 3090 3092 3093 3095 3096 3097 3099 3100 3101 3103 3104 3105 3106 3107 3108 3108 3109 3110 3110 3111 3111 3112 3112 3113 3113 3113 3114 3114 3115 3116 3116 3117 3117 3118 3118 3118 3119 3119 3120 3120 3120 3121 3121 3121 3121 3121 3122 3122 3122 3122 3122 3122 3122 3122 3121 3121
3074 3075 3075 3076 3077 3078 3080 3081 3082 3083 3084 3086 3087 3088 3089 3091 3092 3094 3096 3097 3098 3099 3100 3101 3102 3104 3105 3105 3106 3107 3107 3108 3109 3109 3110 3110 3111 3111 3111 3112 3112 3113 3114 3114 3115 3115 3116 3116 3116 3117 3117 3118 3118 3119 3119 3119 3119 3119 3120 3120 3120 3120 3120 3120 3120 3120 3120 3120 3120
3071 3072 3073 3074 3075 3076 3078 3079 3080 3081 3082 3084 3085 3086 3087 3088 3090 3092 3093 3094 3096 3097 3098 3099 3100 3101 3102 3103 3104 3105 3105 3106 3106 3107 3107 3108 3109 3109 3110 3110 3111 3111 3112 3112 3113 3113 3114 3114 3114 3115 3115 3116 3116 3116 3117 3117 3117 3117 3118 3118 3118 3118 3118 3118 3118 3118 3118 3118 3118
3068 3069 3070 3071 3073 3074 3075 3076 3078 3079 3080 3081 3082 3083 3085 3086 3088 3089 3091 3092 3093 3095 3096 3097 3098 3099 3100 3101 3101 3102 3103 3104 3104 3105 3106 3106 3106 3107 3107 3108 3109 3109 3110 3110 3111 3111 3111 3112 3112 3113 3113 3114 3114 3115 3115 3115 3115 3116 3116 3116 3116 3116 3116 3117 3117 3116 3116 3116 3116
3066 3067 3068 3069 3070 3071 3072 3074 3075 3076 3078 3079 3080 3081 3082 3084 3086 3087 3089 3090 3091 3093 3094 3095 3096 3096 3097 3098 3099 3100 3101 3101 3102 3103 3103 3104 3105 3105 3106 3106 3107 3107 3108 3108 3109 3109 3110 3110 3111 3111 3111 3112 3112 3113 3113 3113 3113 3114 3114 3114 3114 3115 3115 3115 3115 3115 3115 3115 3115
3063 3064 3065 3066 3067 3068 3070 3071 3072 3074 3075 3076 3077 3079 3080 3082 3083 3085 3086 3088 3089 3090 3091 3092 3093 3094 3095 3096 3097 3098 3099 3099 3100 3101 3101 3102 3102 3103 3103 3104 3105 3105 3106 3106 3107 3107 3107 3108 3108 3109 3110 3110 3110 3111 3111 3111 3111 3112 3112 3112 3112 3113 3113 3113 3113 3113 3113 3113 3113
3060 3061 3062 3063 3064 3066 3067 3068 3070 3071 3072 3074 3075 3077 3078 3080 3081 3082 3084 3085 3086 3088 3089 3090 3091 3092 3093 3094 3095 3096 3096 3097 3098 3098 3099 3100 3100 3101 3101 3102 3102 3103 3104 3104 3105 3105 3105 3106 3106 3107 3107 3108 3108 3109 3109 3109 3109 3110 3110 3110 3111 3111 3111 3111 3111 3111 3111 3111 3111
3057 3058 3059 3060 3061 3063 3064 3066 3067 3068 3070 3071 3073 3075 3076 3077 3079 3080 3081 3083 3084 3085 3086 3087 3088 3089 3090 3091 3092 3093 3094 3095 3096 3096 3097 3097 3098 3099 3099 3100 3101 3101 3102 3102 3102 3103 3103 3104 3104 3105 3105 3106 3106 3106 3107 3107 3107 3108 3108 3108 3108 3109 3109 3109 3109 3109 3109 3109 3109
3055 3056 3057 3058 3059 3060 3061 3063 3064 3066 3067 3069 3071 3072 3073 3075 3076 3077 3079 3081 3081 3082 3083 3085 3086 3087 3088 3089 3090 3091 3091 3092 3093 3094 3095 3095 3096 3096 3097 3098 3098 3099 3100 3100 3100 3101 3101 3101 3102 3103 3103 3104 3104 3104 3105 3105 3105 3106 3106 3106 3106 3106 3106 3107 3107 3107 3107 3107 3107
3052 3053 3054 3055 3056 3057 3058 3060 3061 3063 3064 3066 3068 3069 3071 3072 3074 3075 3076 3077 3078 3080 3081 3082 3083 3084 3085 3086 3087 3088 3089 3090 3091 3091 3092 3093 3093 3094 3095 3095 3096 3096 3097 3098 3098 3098 3099 3099 3100 3100 3101 3101 3102 3102 3102 3103 3103 3103 3104 3104 3104 3104 3105 3105 3105 3105 3105 3105 3105
3050 3051 3051 3052 3053 3054 3056 3057 3058 3060 3062 3064 3065 3067 3068 3070 3071 3073 3074 3075 3076 3077 3079 3080 3081 3081 3083 3084 3085 3086 3086 3087 3088 3089 3090 3090 3091 3092 3092 3093 3093 3094 3095 3095 3096 3096 3096 3097 3098 3098 3098 3099 3099 3100 3100 3100 3101 3101 3101 3101 3102 3102 3102 3102 3103 3103 3103 3103 3103
3047 3048 3049 3050 3051 3052 3053 3054 3056 3058 3059 3061 3063 3065 3066 3067 3069 3070 3071 3072 3074 3075 3076 3077 3078 3079 3080 3081 3082 3083 3084 3085 3086 3086 3087 3088 3088 3089 3090 3090 3091 3092 3092 3093 3093 3094 3094 3095 3095 3096 3096 3096 3097 3097 3098 3098 3098 3099 3099 3099 3100 3100 3100 3100 3101 3101 3101 3101 3101
3045 3046 3046 3047 3048 3049 3051 3052 3053 3055 3057 3059 3061 3062 3064 3065 3066 3068 3069 3070 3071 3072 3073 3074 3075 3076 3077 3079 3080 3081 3081 3082 3083 3084 3085 3085 3086 3086 3087 3088 3089 3089 3090 3090 3091 3091 3092 3092 3093 3093 3094 3094 3095 3095 3095 3096 3096 3096 3096 3097 3097 3098 3098 3098 3098 3098 3098 3098 3098
3042 3043 3044 3045 3046 3047 3048 3050 3051 3053 3055 3056 3058 3060 3061 3062 3064 3065 3066 3067 3069 3070 3071 3071 3073 3074 3075 3076 3077 3078 3079 3080 3081 3081 3082 3082 3083 3084 3085 3085 3086 3087 3087 3088 3088 3089 3090 3090 3091 3091 3091 3091 3092 3092 3093 3093 3093 3094 3094 3094 3095 3095 3096 3096 3096 3096 3096 3096 3096
3041 3041 3042 3043 3044 3045 3046 3048 3050 3051 3053 3055 3056 3057 3059 3060 3061 3063 3064 3065 3066 3067 3068 3069 3070 3071 3072 3073 3074 3075 3076 3077 3078 3079 3079 3080 3081 3081 3082 3083 3083 3084 3085 3085 3086 3086 3087 3087 3088 3088 3089 3089 3089 3090 3090 3091 3091 3091 3091 3092 3092 3093 3093 3093 3093 3094 3094 3094 3094
3038 3039 3040 3041 3042 3043 3045 3046 3048 3049 3051 3052 3054 3055 3056 3058 3059 3060 3061 3062 3064 3065 3066 3067 3068 3069 3070 3071 3072 3073 3074 3075 3075 3076 3077 3078 3078 3079 3080 3080 3081 3081 3082 3082 3083 3084 3084 3085 3085 3086 3086 3086 3087 3087 3087 3088 3088 3089 3089 3089 3090 3090 3091 3091 3091 3091 3091 3091 3091
3036 3037 3038 3039 3041 3042 3043 3045 3046 3047 3049 3050 3052 3053 3054 3055 3056 3057 3059 3060 3061 3062 3063 3064 3065 3066 3067 3068 3069 3070 3071 3072 3073 3074 3074 3075 3076 3076 3077 3077 3078 3079 3079 3080 3081 3081 3082 3082 3082 3083 3083 3084 3084 3084 3085 3085 3086 3086 3086 3087 3087 3087 3088 3088 3089 3089 3089 3089 3089
3034 3035 3036 3037 3039 3040 3041 3043 3044 3046 3047 3048 3049 3050 3051 3053 3054 3055 3056 3057 3058 3060 3061 3061 3062 3063 3065 3066 3067 3068 3069 3070 3071 3071 3071 3072 3073 3073 3074 3075 3075 3076 3076 3077 3078 3078 3079 3079 3080 3080 3081 3081 3081 3082 3082 3082 3083 3083 3084 3084 3085 3085 3085 3086 3086 3086 3086 3087 3087
3032 3033 3034 3036 3037 3038 3040 3041 3042 3044 3045 3046 3046 3048 3049 3050 3051 3052 3053 3055 3056 3057 3058 3058 3060 3061 3062 3063 3064 3065 3066 3067 3068 3068 3069 3069 3070 3070 3071 3071 3072 3073 3073 3074 3075 3076 3076 3076 3077 3077 3078 3078 3079 3079 3079 3080 3080 3081 3081 3081 3082 3082 3083 3083 3083 3084 3084 3084 3084
3030 3031 3032 3034 3035 3036 3037 3039 3040 3041 3042 3043 3044 3045 3046 3047 3048 3050 3051 3052 3053 3054 3055 3056 3057 3058 3059 3060 3061 3062 3063 3064 3065 3065 3066 3066 3067 3067 3068 3068 3069 3070 3070 3071 3072 3073 3073 3074 3074 3075 3075 3076 3076 3076 3077 3077 3077 3078 3078 3079 3079 3080 3080 3081 3081 3081 3081 3081 3082
3028 3029 3030 3031 3032 3033 3035 3036 3037 3038 3039 3040 3041 3042 3043 3045 3046 3047 3048 3049 3050 3051 3052 3053 3054 3056 3056 3058 3059 3060 3061 3061 3061 3062 3063 3063 3064 3064 3065 3065 3066 3066 3067 3068 3069 3070 3071 3071 3071 3072 3073 3073 3073 3074 3074 3075 3075 3075 3076 3076 3076 3077 3077 3078 3078 3078 3079 3079 3079
3025 3026 3027 3028 3029 3031 3032 3033 3034 3035 3036 3038 3039 3040 3041 3042 3043 3044 3045 3046 3047 3048 3049 3050 3051 3053 3054 3055 3056 3056 3057 3058 3058 3059 3060 3060 3061 3061 3062 3062 3063 3064 3065 3066 3066 3067 3068 3068 3069 3069 3070 3070 3071 3071 3071 3072 3072 3072 3073 3073 3074 3074 3075 3075 3075 3076 3076 3076 3076
3021 3022 3024 3025 3026 3027 3028 3030 3031 3032 3034 3035 3036 3037 3038 3039 3040 3041 3042 3043 3044 3045 3046 3047 3049 3050 3051 3051 3052 3053 3054 3054 3055 3056 3056 3057 3058 3058 3059 3059 3060 3061 3062 3063 3064 3064 3065 3066 3066 3066 3067 3068 3068 3068 3069 3069 3069 3070 3070 3070 3071 3071 3072 3072 3072 3073 3073 3073 3074
3018 3019 3020 3021 3022 3024 3025 3026 3028 3029 3031 3032 3033 3034 3035 3036 3037 3038 3039 3040 3041 3042 3043 3045 3046 3046 3047 3048 3049 3050 3050 3051 3052 3052 3053 3054 3055 3055 3056 3056 3057 3058 3059 3060 3061 3061 3062 3063 3063 3064 3064 3065 3065 3066 3066 3066 3066 3067 3067 3067 3068 3068 3069 3069 3069 3070 3070 3071 3071
3015 3016 3017 3018 3019 3020 3021 3023 3024 3026 3027 3029 3030 3031 3032 3033 3034 3035 3036 3037 3038 3039 3041 3041 3042 3043 3044 3045 3046 3046 3047 3048 3049 3049 3050 3051 3051 3052 3053 3054 3055 3055 3056 3057 3058 3059 3059 3060 3060 3061 3061 3062 3062 3062 3063 3063 3064 3064 3064 3064 3065 3065 3066 3066 3066 3067 3067 3067 3068
3012 3013 3014 3015 3016 3017 3018 3020 3021 3022 3023 3025 3026 3027 3029 3030 3031 3032 3033 3034 3035 3036 3037 3038 3039 3040 3041 3041 3042 3043 3044 3045 3046 3046 3047 3048 3048 3049 3050 3051 3051 3053 3054 3054 3055 3056 3056 3056 3057 3057 3058 3059 3059 3059 3060 3060 3061 3061 3061 3061 3061 3062 3062 3063 3063 3064 3064 3064 3065
3009 3010 3011 3011 3012 3013 3015 3016 3017 3018 3020 3021 3023 3024 3025 3026 3027 3028 3029 3031 3032 3033 3034 3035 3036 3037 3037 3038 3039 3040 3041 3042 3043 3043 3044 3045 3045 3046 3047 3048 3049 3050 3051 3051 3052 3052 3053 3053 3054 3054 3055 3055 3056 3056 3057 3057 3057 3058 3058 3058 3058 3059 3059 3060 3060 3060 3061 3061 3061
3006 3006 3007 3008 3009 3010 3011 3012 3014 3015 3016 3017 3019 3020 3021 3022 3023 3025 3026 3027 3028 3029 3031 3032 3033 3033 3034 3035 3036 3038 3038 3039 3040 3040 3041 3041 3042 3043 3044 3045 3046 3047 3048 3048 3049 3049 3050 3050 3050 3051 3051 3051 3052 3053 3053 3054 3054 3054 3055 3055 3055 3056 3056 3056 3056 3057 3057 3058 3058
3003 3003 3004 3005 3006 3007 3008 3009 3010 3011 3012 3013 3015 3016 3017 3018 3020 3021 3023 3024 3025 3026 3028 3029 3029 3030 3031 3033 3034 3034 3035 3036 3036 3037 3038 3038 3039 3040 3041 3042 3043 3043 3044 3045 3046 3046 3046 3046 3046 3047 3047 3048 3048 3049 3049 3050 3051 3051 3051 3052 3052 3052 3052 3053 3053 3053 3054 3054 3054
3000 3000 3001 3002 3003 3004 3005 3006 3007 3007 3009 3010 3011 3012 3013 3015 3016 3018 3020 3021 3022 3023 3024 3025 3026 3027 3028 3030 3030 3031 3032 3032 3033 3034 3035 3036 3036 3037 3038 3039 3039 3040 3041 3042 3042 3042 3043 3043 3043 3043 3044 3044 3045 3045 3046 3046 3047 3047 3048 3048 3048 3049 3049 3049 3050 3050 3050 3051 3051
2996 2997 2998 2999 3000 3001 3001 3002 3003 3004 3005 3006 3007 3009 3010 3011 3013 3015 3016 3017 3018 3019 3020 3021 3022 3024 3025 3026 3027 3028 3028 3029 3030 3031 3031 3032 3033 3034 3035 3035 3036 3037 3038 3038 3039 3039 3040 3040 3040 3040 3041 3041 3041 3041 3042 3042 3043 3044 3044 3044 3045 3045 3045 3046 3046 3046 3047 3047 3047
2994 2994 2995 2996 2996 2997 2998 2999 3000 3001 3001 3003 3004 3005 3007 3008 3010 3011 3012 3013 3015 3016 3017 3018 3019 3021 3021 3022 3023 3024 3025 3026 3026 3027 3028 3029 3029 3030 3031 3031 3032 3033 3034 3035 3035 3036 3036 3036 3037 3037 3037 3037 3038 3038 3038 3039 3039 3040 3040 3041 3041 3041 3041 3042 3042 3043 3043 3043 3044
2991 2991 2992 2993 2993 2994 2995 2996 2996 2997 2998 2999 3001 3002 3003 3005 3006 3007 3009 3010 3011 3012 3013 3014 3016 3017 3018 3018 3019 3020 3021 3022 3023 3023 3024 3025 3026 3026 3027 3028 3029 3030 3031 3031 3032 3032 3033 3033 3033 3033 3033 3034 3034 3034 3035 3035 3035 3036 3036 3036 3037 3037 3038 3038 3039 3039 3039 3040 3040
2988 2989 2989 2990 2991 2991 2992 2992 2993 2994 2995 2996 2997 2999 3000 3001 3002 3004 3005 3006 3007 3008 3009 3011 3012 3013 3014 3015 3016 3016 3017 3018 3019 3020 3020 3021 3022 3022 3023 3024 3025 3026 3027 3027 3028 3029 3029 3029 3030 3030 3030 3030 3030 3031 3031 3031 3031 3031 3032 3032 3033 3033 3034 3035 3035 3035 3035 3036 3036
2985 2985 2986 2986 2987 2988 2989 2989 2990 2991 2992 2993 2994 2995 2996 2997 2999 3000 3001 3002 3003 3004 3006 3007 3008 3009 3010 3011 3012 3013 3014 3015 3015 3016 3016 3017 3018 3019 3019 3020 3021 3022 3023 3024 3024 3025 3025 3025 3026 3026 3026 3026 3026 3026 3027 3027 3027 3027 3028 3028 3029 3030 3030 3031 3031 3031 3031 3032 3032
2982 2982 2983 2983 2984 2985 2985 2986 2987 2988 2988 2989 2990 2991 2992 2993 2994 2996 2997 2998 2999 3000 3001 3003 3004 3005 3006 3007 3008 3009 3010 3011 3011 3012 3012 3013 3014 3015 3016 3016 3017 3018 3019 3020 3020 3021 3021 3021 3021 3021 3021 3022 3022 3023 3023 3023 3023 3024 3024 3025 3025 3026 3026 3026 3027 3027 3027 3028 3028
2979 2979 2979 2980 2980 2981 2981 2982 2983 2984 2985 2986 2986 2987 2988 2990 2991 2991 2993 2994 2995 2996 2997 2999 3000 3001 3002 3003 3004 3005 3006 3006 3007 3008 3009 3009 3010 3011 3012 3013 3013 3014 3015 3016 3016 3016 3016 3016 3016 3017 3017 3018 3018 3019 3019 3019 3019 3020 3020 3021 3021 3022 3022 3023 3023 3023 3024 3024 3025
2976 2976 2976 2976 2977 2977 2978 2979 2979 2980 2981 2982 2983 2984 2985 2986 2986 2988 2989 2990 2991 2992 2993 2994 2995 2996 2997 2998 2999 3000 3001 3002 3003 3004 3004 3005 3006 3007 3008 3009 3009 3010 3011 3011 3011 3012 3012 3012 3012 3012 3013 3014 3014 3015 3015 3015 3015 3016 3016 3017 3017 3018 3018 3019 3019 3020 3020 3021 3021
2973 2973 2973 2974 2974 2974 2975 2975 2976 2976 2977 2978 2979 2980 2981 2982 2982 2983 2984 2986 2986 2987 2989 2990 2991 2992 2993 2994 2995 2996 2997 2997 2998 2999 3000 3001 3001 3002 3003 3004 3004 3005 3006 3006 3006 3006 3006 3007 3007 3008 3009 3010 3010 3010 3010 3011 3011 3011 3012 3013 3014 3014 3014 3015 3016 3016 3017 3017 3018